User: anonymous   Login
Location: Ariel
(45.9570°N, 122.5700°W)
Time: 07:45:05
(UTC-07:00)
Language:

DX 1 - Orbit

View from above orbital plane
View from above orbital plane
View from above satellite
View from above satellite

Ground track
Ground track

The orbit data is extracted from the following two-line orbital elements,

1 40071U 14037C   19115.31168310  .00000073  00000-0  16813-4 0  9990
2 40071  98.4175 266.4451 0009487  46.8158 313.3852 14.81254794259204
Epoch (UTC): 25 April 2019 07:28:49
Eccentricity: 0.0009487
inclination: 98.4175°
perigee height: 619 km
apogee height: 632 km
right ascension of ascending node: 266.4451°
argument of perigee: 46.8158°
revolutions per day: 14.81254794
mean anomaly at epoch: 313.3852°
orbit number at epoch: 25920

The dashed part of the orbit path shows where the satellite is in the earth's shadow,  

DLR